Retour au catalogue

STARLINK-6173

ActifCommunicationsVLEO
NORAD 56385·PAYLOAD·🇺🇸 United States

Lancé May 4, 2023 depuis Cape Canaveral Space Force Station

Loading…

Prochains Passages (prochaines 24 heures)

TLE

FraisSource: CelesTrak SupGP

Époque: Sep 15, 2026, 02:17 UTC

1 56385C 23061M   26258.09562500 -.00038125  00000+0 -13812-2 0  2584
2 56385  42.9996 208.3045 0001221 268.2325 178.1576 15.27590726    14

Suivez STARLINK-6173 en temps réel avec AllMySat

Download on the App Store